{"data":{"norad_id":54778,"epoch":"2026-09-20T21:56:40.017984Z","epoch_age_seconds":54529,"freshness":"FRESH","line1":"1 54778U 22175W   26263.91435206  .00000521  00000+0  26563-4 0  9990","line2":"2 54778  53.1565 217.9021 0001324  95.9305 264.1849 15.34385266209807","mean_motion":15.34385266,"eccentricity":0.0001324,"inclination_deg":53.1565,"raan_deg":217.9021,"arg_perigee_deg":95.9305,"mean_anomaly_deg":264.1849,"bstar":2.6563e-5,"rev_number":20980,"period_min":93.848659258437,"perigee_km":461.8413000646,"apogee_km":463.65276615657,"semimajor_km":6840.8840331106,"source":"CELESTRAK","updated_at":"2026-09-21T09:00:33.124094Z"}}